Flag for U.S.A. Weather past 2 weeks in Detroit, Michigan, U.S.A.

Now
71 °F

Passing clouds.


Feels Like: 70 °F
Forecast: 68 / 81 °F
Wind: 9 mph from South

Location: Detroit City Airport

Current Time: Aug 20, 2014 at 3:07:19 AM

Latest Report: Aug 20, 2014 at 1:53 AM


Visibility: 10 mi

Pressure: 29.79 "Hg

Humidity: 84%

Dew point: 66 °F

Location of DetroitLocation

Historic Weather in Detroit — Graph

°F

Detroit temperature yesterday

Maximum temperature yesterday: 84 °F (at 1:53 PM)
Minimum temperature yesterday: 69 °F (at 12:53 AM)
Average temperature yesterday: 74 °F

Past Weeks' High & Low Weather Summary

 TemperatureHumidityPressure
High84 °F (Aug 10, 3:53 PM)91% (Aug 11, 7:53 PM)30.17 "Hg (Aug 11, 7:53 PM)
Low53 °F (Aug 15, 5:53 AM)30% (Aug 15, 2:53 PM)29.66 "Hg (Aug 11, 7:53 PM)
Average71 °F65%29.96 "Hg
* Reported Aug 5 1:53 AM — Aug 20 1:53 AM, Detroit, Weather by CustomWeather, © 2014

Note: Actual official high and low records may vary slightly from our data, if they occured in-between our weather recording intervals... More about our weather records

Advertising

Detroit weather history for previous 24 hours

 ConditionsComfort  
Time TempWeatherWind HumidityBarometerVisibility
1:53 AM
Aug 20
71 °FPassing clouds.9 mph84%29.79 "Hg10 mi
12:53 AM69 °FPassing clouds.6 mph87%29.78 "Hg10 mi
11:53 PM
Aug 19
69 °FClear.No wind84%29.79 "Hg10 mi
10:53 PM69 °FClear.5 mph87%29.79 "Hg10 mi
9:53 PM69 °FClear.5 mph87%29.79 "Hg9 mi
8:53 PM70 °FLight rain. Scattered clouds.3 mph87%29.79 "Hg10 mi
7:53 PM70 °FLight rain. Partly sunny.8 mph87%29.77 "Hg10 mi
7:00 PM70 °FThundershowers. More clouds than sun.3 mph87%29.80 "Hg10 mi
5:53 PM82 °FScattered clouds.10 mph65%29.74 "Hg10 mi
4:53 PM83 °FScattered clouds.14 mph59%29.74 "Hg10 mi
3:53 PM84 °FPassing clouds.12 mph59%29.75 "Hg10 mi
2:53 PM84 °FPassing clouds.14 mph59%29.76 "Hg10 mi
1:53 PM84 °FSunny.14 mph59%29.77 "Hg10 mi
12:53 PM82 °FPassing clouds.9 mph60%29.77 "Hg10 mi
11:53 AM80 °FScattered clouds.8 mph62%29.81 "Hg10 mi
10:53 AM76 °FLight rain. Broken clouds.10 mph64%29.83 "Hg10 mi
9:53 AM76 °FSunny.10 mph62%29.82 "Hg10 mi
8:53 AM73 °FScattered clouds.8 mph71%29.83 "Hg10 mi
7:53 AM70 °FPartly sunny.5 mph76%29.83 "Hg10 mi
6:53 AM69 °FOvercast.7 mph79%29.81 "Hg10 mi
5:53 AM70 °FMostly cloudy.7 mph73%29.81 "Hg10 mi
4:53 AM70 °FOvercast.7 mph76%29.81 "Hg10 mi
3:53 AM70 °FMostly cloudy.5 mph76%29.82 "Hg10 mi
Weather by CustomWeather, © 2014

See weather overviewHow to use our weather pages